EW6851 Weather Reports


Display with metric or nautical units.
time (UTC)temp
F
wind
direction
speed
MPH
gust
MPH
rain 1hr
in
rain 24hr
in
rain mn
in
humidity
%
barometer
mb
20260504184203 65 106 0.0 1.0 0.00 0.00 0.00 70 1018.3
20260504183657 65 106 0.0 1.0 0.00 0.00 0.00 71 1018.3
20260504183158 65 106 0.0 2.0 0.00 0.00 0.00 73 1018.3
20260504182703 65 106 1.0 4.0 0.00 0.00 0.00 72 1018.3
20260504182157 65 106 0.0 3.0 0.00 0.00 0.00 71 1018.2
20260504181657 66 118 2.0 3.0 0.00 0.00 0.00 71 1018.2
20260504181200 66 96 0.0 3.0 0.00 0.00 0.00 70 1018.2
20260504180657 66 110 0.0 5.0 0.00 0.00 0.00 69 1018.2
20260504180204 66 103 1.0 5.0 0.00 0.00 0.00 67 1018.2
20260504175657 66 42 1.0 5.0 0.00 0.00 0.00 66 1018.2
20260504175200 66 50 5.0 6.0 0.00 0.00 0.00 63 1018.2
20260504174700 66 25 2.0 4.0 0.00 0.00 0.00 60 1018.2
20260504174157 66 329 4.0 5.0 0.00 0.00 0.00 59 1018.2
20260504173658 67 355 2.0 5.0 0.00 0.00 0.00 56 1018.1
20260504173200 67 25 5.0 6.0 0.00 0.00 0.00 54 1018.1
20260504172657 67 11 1.0 6.0 0.00 0.00 0.00 55 1018.1
20260504172200 67 355 2.0 6.0 0.00 0.00 0.00 57 1018.0
20260504171657 68 38 2.0 9.0 0.00 0.00 0.00 55 1018.0
20260504171157 68 38 3.0 8.0 0.00 0.00 0.00 51 1017.9
20260504170700 68 31 1.0 7.0 0.00 0.00 0.00 52 1017.8
20260504170200 68 20 1.0 6.0 0.00 0.00 0.00 54 1017.8
20260504160157 69 44 7.0 8.0 0.00 0.00 0.00 50 1017.7
20260504150657 70 33 6.0 7.0 0.00 0.00 0.00 53 1017.9
20260504150200 70 306 5.0 9.0 0.00 0.00 0.00 53 1018.0
20260504141200 71 333 6.0 9.0 0.00 0.00 0.00 52 1018.2
20260504140701 71 15 5.0 12.0 0.00 0.00 0.00 51 1018.2
20260504140203 70 319 5.0 9.0 0.00 0.00 0.00 52 1018.3
20260504130700 70 355 1.0 9.0 0.00 0.00 0.00 48 1019.0
20260504130157 71 5 4.0 8.0 0.00 0.00 0.00 47 1019.0
20260504120133 71 59 7.0 10.0 0.00 0.00 0.00 39 1019.2
20260504110626 71 339 3.0 9.0 0.00 0.00 0.00 50 1019.5
20260504110129 71 306 6.0 9.0 0.00 0.00 0.00 49 1019.5
20260504100129 70 118 4.0 9.0 0.00 0.00 0.00 53 1020.3
20260504090126 70 32 8.0 12.0 0.00 0.00 0.00 42 1020.1
20260504081626 70 273 2.0 7.0 0.00 0.00 0.00 54 1020.2
20260504081132 69 323 6.0 6.0 0.00 0.00 0.00 54 1020.1
20260504080626 69 293 3.0 5.0 0.00 0.00 0.00 55 1020.2
20260504080129 69 322 1.0 6.0 0.00 0.00 0.00 54 1020.1
20260504070126 67 296 0.0 1.0 0.00 0.00 0.00 42 1020.5
20260504060130 60 176 0.0 0.0 0.00 0.00 0.00 57 1020.3
20260504050630 56 119 0.0 2.0 0.00 0.00 0.00 59 1019.9
20260504050130 56 192 1.0 4.0 0.00 0.00 0.00 58 1019.9
20260504045627 56 215 4.0 7.0 0.00 0.00 0.00 58 1019.8
20260504045130 56 158 2.0 6.0 0.00 0.00 0.00 58 1019.8
20260504044627 56 144 3.0 5.0 0.00 0.00 0.00 58 1019.8
20260504044127 56 145 3.0 4.0 0.00 0.00 0.00 58 1019.8
20260504043633 56 175 4.0 4.0 0.00 0.00 0.00 58 1019.7
20260504043127 56 207 1.0 6.0 0.00 0.00 0.00 59 1019.7
20260504042633 55 154 1.0 6.0 0.00 0.00 0.00 59 1019.7
20260504042130 55 178 0.0 6.0 0.00 0.00 0.00 59 1019.6
20260504041630 55 114 2.0 4.0 0.00 0.00 0.00 59 1019.6
20260504041127 55 165 0.0 3.0 0.00 0.00 0.00 59 1019.6
20260504040627 55 185 2.0 5.0 0.00 0.00 0.00 59 1019.6
20260504040127 55 149 1.0 6.0 0.00 0.00 0.00 59 1019.5
20260504035627 55 141 0.0 6.0 0.00 0.00 0.00 59 1019.4
20260504035127 55 157 2.0 7.0 0.00 0.00 0.00 59 1019.5
20260504034633 55 162 3.0 5.0 0.00 0.00 0.00 59 1019.5
20260504034128 55 140 5.0 6.0 0.00 0.00 0.00 59 1019.5
20260504033627 55 149 1.0 5.0 0.00 0.00 0.00 59 1019.5
20260504033127 55 138 4.0 5.0 0.00 0.00 0.00 59 1019.6
20260504032634 55 144 3.0 6.0 0.00 0.00 0.00 59 1019.6
20260504032133 55 156 2.0 6.0 0.00 0.00 0.00 59 1019.5
20260504031630 55 147 1.0 7.0 0.00 0.00 0.00 59 1019.6
20260504031127 55 148 3.0 5.0 0.00 0.00 0.00 59 1019.6
20260504030627 55 128 4.0 8.0 0.00 0.00 0.00 60 1019.6
20260504030127 55 161 3.0 6.0 0.00 0.00 0.00 60 1019.6
20260504025630 55 126 5.0 7.0 0.00 0.00 0.00 60 1019.7
20260504025127 55 166 0.0 5.0 0.00 0.00 0.00 60 1019.7
20260504024636 55 155 0.0 7.0 0.00 0.00 0.00 60 1019.7
20260504024130 55 167 0.0 7.0 0.00 0.00 0.00 60 1019.8
20260504023628 55 156 0.0 7.0 0.00 0.00 0.00 60 1019.8
20260504023127 55 154 1.0 6.0 0.00 0.00 0.00 60 1019.8
20260504022627 55 168 2.0 7.0 0.00 0.00 0.00 60 1019.8
20260504022127 55 130 3.0 5.0 0.00 0.00 0.00 60 1019.8
20260504021627 55 170 0.0 5.0 0.00 0.00 0.00 60 1019.8
20260504021130 55 125 1.0 4.0 0.00 0.00 0.00 60 1019.8
20260504020630 55 148 3.0 5.0 0.00 0.00 0.00 60 1019.7
20260504020125 55 166 1.0 4.0 0.00 0.00 0.00 60 1019.7
20260504015631 55 114 3.0 5.0 0.00 0.00 0.00 60 1019.6
20260504015124 55 162 3.0 5.0 0.00 0.00 0.00 60 1019.6
20260504014625 55 190 3.0 5.0 0.00 0.00 0.00 60 1019.5
20260504014128 55 164 1.0 5.0 0.00 0.00 0.00 60 1019.5
20260504013625 55 159 1.0 6.0 0.00 0.00 0.00 60 1019.4
20260504013131 55 176 0.0 5.0 0.00 0.00 0.00 60 1019.4
20260504012628 56 157 2.0 6.0 0.00 0.00 0.00 60 1019.4
20260504012125 56 137 3.0 4.0 0.00 0.00 0.00 60 1019.4
20260504011625 56 120 0.0 6.0 0.00 0.00 0.00 60 1019.5
20260504011125 56 140 6.0 7.0 0.00 0.00 0.00 60 1019.5
20260504010625 56 152 0.0 8.0 0.00 0.00 0.00 60 1019.6
20260504010128 55 143 0.0 8.0 0.00 0.00 0.00 60 1019.7
20260504005628 55 136 5.0 7.0 0.00 0.00 0.00 60 1019.7
20260504005125 55 156 0.0 6.0 0.00 0.00 0.00 60 1019.8
20260504004631 56 143 1.0 6.0 0.00 0.00 0.00 61 1019.8
20260504004125 56 161 0.0 7.0 0.00 0.00 0.00 61 1019.7
20260504003625 56 137 3.0 5.0 0.00 0.00 0.00 61 1019.8
20260504003125 56 169 3.0 6.0 0.00 0.00 0.00 61 1019.8
20260504002628 56 134 1.0 5.0 0.00 0.00 0.00 62 1019.8
20260504002128 55 136 3.0 5.0 0.00 0.00 0.00 62 1019.8
20260504001625 55 152 1.0 7.0 0.00 0.00 0.00 63 1019.8
20260504001131 56 157 3.0 6.0 0.00 0.00 0.00 63 1019.9
20260504000625 56 175 4.0 5.0 0.00 0.00 0.00 63 1019.9
20260504000128 56 150 2.0 6.0 0.00 0.00 0.00 63 1020.0
20260503235625 56 161 2.0 7.0 0.00 0.00 0.00 63 1020.0
20260503235128 56 167 6.0 7.0 0.00 0.00 0.00 63 1020.0
20260503234625 56 153 6.0 6.0 0.00 0.00 0.00 63 1020.1
20260503234126 56 152 4.0 5.0 0.00 0.00 0.00 63 1020.1
20260503233625 56 132 1.0 4.0 0.00 0.00 0.00 64 1020.2
20260503233125 56 157 5.0 6.0 0.00 0.00 0.00 64 1020.2
20260503232628 56 123 2.0 5.0 0.00 0.00 0.00 64 1020.2
20260503232128 56 178 0.0 5.0 0.00 0.00 0.00 65 1020.2
20260503231628 56 182 1.0 6.0 0.00 0.00 0.00 65 1020.2
20260503231128 56 136 4.0 7.0 0.00 0.00 0.00 66 1020.2
20260503230628 56 161 0.0 7.0 0.00 0.00 0.00 66 1020.3
20260503230125 56 119 5.0 7.0 0.00 0.00 0.00 66 1020.4
20260503225631 57 138 2.0 7.0 0.00 0.00 0.00 66 1020.5
20260503225128 57 202 0.0 6.0 0.00 0.00 0.00 66 1020.5
20260503224625 57 170 3.0 6.0 0.00 0.00 0.00 67 1020.6
20260503224125 57 150 3.0 6.0 0.00 0.00 0.00 67 1020.6
20260503223625 57 171 2.0 4.0 0.00 0.00 0.00 67 1020.6
20260503223125 57 150 4.0 5.0 0.00 0.00 0.00 68 1020.6
20260503222628 57 166 3.0 5.0 0.00 0.00 0.00 68 1020.7
20260503222128 57 161 0.0 6.0 0.00 0.00 0.00 68 1020.7
20260503221625 57 164 1.0 6.0 0.00 0.00 0.00 68 1020.6
20260503221125 57 128 4.0 7.0 0.00 0.00 0.00 69 1020.6
20260503220632 57 161 4.0 6.0 0.00 0.00 0.00 69 1020.6
20260503220128 57 163 0.0 4.0 0.00 0.00 0.00 69 1020.5
20260503215625 57 161 3.0 6.0 0.00 0.00 0.00 69 1020.5
20260503215125 57 112 1.0 7.0 0.00 0.00 0.00 70 1020.5
20260503214628 57 129 3.0 6.0 0.00 0.00 0.00 70 1020.6
20260503214125 58 157 4.0 6.0 0.00 0.00 0.00 70 1020.5
20260503213631 58 165 4.0 7.0 0.00 0.00 0.00 70 1020.5
20260503213134 58 116 0.0 6.0 0.00 0.00 0.00 70 1020.5
20260503212628 58 161 1.0 6.0 0.00 0.00 0.00 71 1020.5
20260503212128 58 167 5.0 7.0 0.00 0.00 0.00 70 1020.5
20260503211625 58 165 4.0 6.0 0.00 0.00 0.00 71 1020.6
20260503211125 58 159 3.0 7.0 0.00 0.00 0.00 71 1020.6
20260503210625 58 150 5.0 7.0 0.00 0.00 0.00 71 1020.7
20260503210131 58 167 2.0 7.0 0.00 0.00 0.00 71 1020.7
20260503205629 58 127 2.0 7.0 0.00 0.00 0.00 72 1020.7
20260503205128 58 169 2.0 5.0 0.00 0.00 0.00 72 1020.7
20260503204625 58 156 2.0 5.0 0.00 0.00 0.00 73 1020.7
20260503204134 58 132 3.0 6.0 0.00 0.00 0.00 73 1020.7
20260503203628 58 150 4.0 6.0 0.00 0.00 0.00 73 1020.7
20260503203125 58 144 4.0 7.0 0.00 0.00 0.00 74 1020.7
20260503202628 58 130 3.0 6.0 0.00 0.00 0.00 74 1020.7
20260503202125 59 123 5.0 7.0 0.00 0.00 0.00 73 1020.7
20260503201625 59 163 3.0 6.0 0.00 0.00 0.00 73 1020.7
20260503201129 59 148 4.0 7.0 0.00 0.00 0.00 73 1020.6
20260503200631 59 178 2.0 5.0 0.00 0.00 0.00 73 1020.6
20260503200125 59 173 3.0 6.0 0.00 0.00 0.00 73 1020.6
20260503195628 59 130 2.0 5.0 0.00 0.00 0.00 73 1020.6
20260503195125 59 145 3.0 7.0 0.00 0.00 0.00 73 1020.6
20260503194631 60 119 3.0 8.0 0.00 0.00 0.00 73 1020.6
20260503194125 60 150 1.0 8.0 0.00 0.00 0.00 73 1020.6
20260503193625 60 82 1.0 6.0 0.00 0.00 0.00 74 1020.6
20260503193128 60 138 0.0 6.0 0.00 0.00 0.00 74 1020.6
20260503192629 60 107 2.0 5.0 0.00 0.00 0.00 74 1020.5
20260503192131 60 156 2.0 8.0 0.00 0.00 0.00 74 1020.5
20260503191625 60 157 3.0 7.0 0.00 0.00 0.00 76 1020.5
20260503191125 60 124 0.0 6.0 0.00 0.00 0.00 76 1020.5
20260503190625 61 127 5.0 7.0 0.00 0.00 0.00 77 1020.5
20260503190131 61 167 2.0 6.0 0.00 0.00 0.00 77 1020.5
20260503185628 62 159 1.0 5.0 0.00 0.00 0.00 77 1020.4
20260503185128 62 175 0.0 3.0 0.00 0.00 0.00 77 1020.3
20260503184625 62 138 0.0 4.0 0.00 0.00 0.00 76 1020.2